Location: Unspecified
(33.6682°S, 0.0000°E)
Time: 03:50:19
(UTC+00:00)

A-11 Canister half - All Passes

Search period start: 18 June 2019 00:00
Search period end: 28 June 2019 00:00
Orbit: 1516 x 1684 km, 47.2° (Epoch: 16 June)

Date Brightness Start Highest point End Pass type
(mag) Time Alt. Az. Time Alt. Az. Time Alt. Az.
18 Jun - 00:07:56 10° WNW 00:17:18 61° SSW 00:27:07 10° SE night (unlit)
18 Jun - 02:15:12 10° WSW 02:24:04 37° S 02:33:13 10° ESE visible
18 Jun - 04:21:41 10° SW 04:31:15 48° SSE 04:41:01 10° E visible
18 Jun - 06:26:50 10° SW 06:36:56 76° NW 06:47:05 10° NE visible
18 Jun - 08:34:06 10° W 08:40:52 20° NW 08:47:39 10° NNW daylight
18 Jun - 21:40:53 10° NNW 21:49:37 46° NE 21:58:38 10° ESE visible
18 Jun - 23:44:57 10° WNW 23:54:20 64° SSW 00:04:08 10° SE night (unlit)
19 Jun - 01:52:10 10° WSW 02:01:00 37° S 02:10:08 10° ESE visible
19 Jun - 03:58:43 10° SW 04:08:13 47° SSE 04:17:54 10° E visible
19 Jun - 06:03:53 10° SW 06:13:59 80° NW 06:24:11 10° NE visible
19 Jun - 08:10:50 10° W 08:18:01 22° NW 08:25:13 10° N daylight
19 Jun - 21:18:11 10° NNW 21:26:45 43° NE 21:35:36 10° ESE visible
19 Jun - 23:21:59 10° WNW 23:31:23 66° SSW 23:41:11 10° SE night (unlit)
20 Jun - 01:29:06 10° WSW 01:37:56 38° S 01:47:05 10° ESE visible
20 Jun - 03:35:46 10° SW 03:45:10 45° SSE 03:54:47 10° E visible
20 Jun - 05:40:57 10° SW 05:51:03 84° NW 06:01:15 10° NE visible
20 Jun - 07:47:37 10° WSW 07:55:09 24° NW 08:02:44 10° N daylight
20 Jun - 20:55:30 10° NNW 21:03:54 39° NE 21:12:34 10° ESE visible
20 Jun - 22:59:01 10° WNW 23:08:25 70° SSW 23:18:13 10° SE night (unlit)
21 Jun - 01:06:04 10° WSW 01:14:52 38° S 01:24:01 10° ESE visible
21 Jun - 03:12:48 10° SW 03:22:08 44° SSE 03:31:40 10° E visible
21 Jun - 05:18:00 10° SW 05:28:05 88° NW 05:38:19 10° NE visible
21 Jun - 07:24:26 10° WSW 07:32:18 26° NW 07:40:12 10° N daylight
21 Jun - 20:32:50 10° NNW 20:41:04 37° NE 20:49:30 10° ESE visible
21 Jun - 22:36:05 10° WNW 22:45:28 73° SSW 22:55:15 10° SE night (unlit)
22 Jun - 00:43:00 10° WSW 00:51:50 39° S 01:00:58 10° ESE visible
22 Jun - 02:49:51 10° SW 02:59:05 43° SSE 03:08:33 10° E visible
22 Jun - 04:55:05 10° SW 05:05:08 88° SE 05:15:22 10° NE visible
22 Jun - 07:01:17 10° WSW 07:09:25 29° NW 07:17:37 10° N daylight
22 Jun - 20:10:12 10° N 20:18:14 34° NE 20:26:26 10° ESE visible
22 Jun - 22:13:08 10° WNW 22:22:31 77° SW 22:32:18 10° SE visible
23 Jun - 00:19:58 10° WSW 00:28:47 39° S 00:37:55 10° SE night (unlit)
23 Jun - 02:26:53 10° SW 02:36:02 42° SSE 02:45:26 10° E visible
23 Jun - 04:32:09 10° SW 04:42:11 84° SE 04:52:24 10° NE visible
23 Jun - 06:38:10 10° WSW 06:46:33 31° NW 06:55:01 10° N visible
23 Jun - 19:47:37 10° N 19:55:23 31° NE 20:03:20 10° ESE visible
23 Jun - 21:50:13 10° WNW 21:59:35 80° SW 22:09:21 10° SE visible
23 Jun - 23:56:55 10° W 00:05:44 40° SSW 00:14:53 10° SE night (unlit)
24 Jun - 02:03:55 10° SW 02:12:59 41° SSE 02:22:19 10° E visible
24 Jun - 04:09:13 10° SW 04:19:13 81° SE 04:29:25 10° ENE visible
24 Jun - 06:15:04 10° WSW 06:23:40 33° NW 06:32:22 10° N visible
24 Jun - 19:25:02 10° N 19:32:34 29° NE 19:40:13 10° ESE visible
24 Jun - 21:27:18 10° NW 21:36:40 84° SW 21:46:23 10° SE visible
24 Jun - 23:33:52 10° W 23:42:42 41° SSW 23:51:52 10° SE night (unlit)
25 Jun - 01:40:56 10° SW 01:49:56 40° SSE 01:59:11 10° E visible
25 Jun - 03:46:18 10° SW 03:56:15 77° SE 04:06:26 10° ENE visible
25 Jun - 05:52:01 10° WSW 06:00:47 36° NW 06:09:41 10° N visible
25 Jun - 19:02:30 10° N 19:09:44 26° NE 19:17:06 10° ESE visible
25 Jun - 21:04:24 10° NW 21:13:45 88° SW 21:23:27 10° SE visible
25 Jun - 23:10:50 10° W 23:19:40 42° SSW 23:28:50 10° SE night (unlit)
26 Jun - 01:17:57 10° WSW 01:26:52 39° S 01:36:04 10° ESE visible
26 Jun - 03:23:23 10° SW 03:33:17 73° SSE 03:43:25 10° ENE visible
26 Jun - 05:28:57 10° WSW 05:37:54 39° NW 05:47:00 10° NNE visible
26 Jun - 18:39:59 10° N 18:46:55 24° NE 18:53:56 10° ESE visible
26 Jun - 20:41:31 10° NW 20:50:50 87° NE 21:00:29 10° SE visible
26 Jun - 22:47:47 10° W 22:56:39 43° SSW 23:05:50 10° SE visible
27 Jun - 00:54:58 10° WSW 01:03:49 38° S 01:12:56 10° ESE visible
27 Jun - 03:00:28 10° SW 03:10:18 70° SSE 03:20:24 10° ENE visible
27 Jun - 05:05:55 10° WSW 05:15:01 41° NW 05:24:16 10° NNE visible
27 Jun - 18:17:31 10° N 18:24:06 22° NE 18:30:44 10° E visible
27 Jun - 20:18:39 10° NW 20:27:56 83° NE 20:37:32 10° SE visible
27 Jun - 22:24:45 10° W 22:33:38 44° SSW 22:42:50 10° SE visible
